Flag for Poland

Past Weather in Warsaw, Poland — Yesterday and Last 2 Weeks

Now
75 °F

Passing clouds.


Feels Like: 78 °F
Forecast: 80 / 57 °F
Wind: 7 mph from Northeast

Location: Warsaw Okecie Airport

Current Time: Aug 5, 2020 at 7:09:09 pm

Latest Report: Aug 5, 2020 at 6:30 pm


Visibility: N/A

Pressure: 30.12 "Hg

Humidity: 41%

Dew Point: 50 °F

Location of WarsawLocation

Past Weather in Warsaw — Graph

°F

Warsaw Temperature Yesterday

Maximum temperature yesterday: 64 °F (at 12:00 am)
Minimum temperature yesterday: 61 °F (at 5:30 am)
Average temperature yesterday: 64 °F

High & Low Weather Summary for the Past Weeks

 TemperatureHumidityPressure
High86 °F (Jul 28, 2:00 pm)100% (Jul 22, 5:00 am)30.12 "Hg (Jul 22, 5:00 am)
Low48 °F (Jul 22, 5:00 am)28% (Aug 2, 3:30 pm)29.74 "Hg (Aug 4, 2:00 am)
Average67 °F67%29.96 "Hg
* Reported Jul 21 6:00 pm — Aug 5 6:00 pm, Warsaw. Weather by CustomWeather, © 2020

Note: Actual official high and low records may vary slightly from our data, if they occured in-between our weather recording intervals... More about our weather records

Warsaw Weather History for the Previous 24 Hours

Scroll right to see more
 ConditionsComfort  
Time TempWeatherWind HumidityBarometerVisibility
6:00 pm
Wed, Aug 5
75 °FPassing clouds.7 mph41%30.12 "HgN/A
5:30 pm75 °FPassing clouds.7 mph44%30.12 "HgN/A
5:00 pm75 °FPassing clouds.5 mph44%30.12 "HgN/A
4:30 pm75 °FSunny.3 mph44%30.12 "Hg10 mi
4:00 pm73 °FPassing clouds.6 mph47%30.12 "HgN/A
3:30 pm75 °FPassing clouds.6 mph44%30.12 "HgN/A
3:00 pm73 °FPassing clouds.6 mph44%30.12 "HgN/A
2:30 pm73 °FPassing clouds.7 mph44%30.12 "HgN/A
2:00 pm73 °FPassing clouds.5 mph47%30.12 "HgN/A
1:30 pm72 °FPassing clouds.6 mph50%30.12 "HgN/A
1:00 pm72 °FPassing clouds.5 mph53%30.12 "HgN/A
12:30 pm70 °FPassing clouds.5 mph53%30.12 "HgN/A
12:00 pm70 °FPassing clouds.6 mph53%30.12 "HgN/A
11:30 am68 °FPassing clouds.5 mph56%30.12 "HgN/A
11:00 am66 °FPassing clouds.6 mph60%30.12 "HgN/A
10:30 am66 °FPassing clouds.5 mph64%30.12 "HgN/A
10:00 am63 °FPassing clouds.5 mph77%30.12 "HgN/A
9:30 am61 °FPassing clouds.6 mph83%30.09 "HgN/A
9:00 am59 °FSunny.6 mph88%30.09 "Hg10 mi
8:30 am59 °FSunny.6 mph88%30.09 "Hg10 mi
8:00 am57 °FSunny.6 mph94%30.09 "Hg10 mi
7:30 am59 °FSunny.6 mph88%30.09 "Hg10 mi
7:00 am57 °FSunny.7 mph94%30.07 "Hg10 mi
6:30 am57 °FSunny.6 mph94%30.07 "Hg10 mi
6:00 am55 °FSunny.7 mph94%30.07 "Hg10 mi
5:30 am54 °FSunny.6 mph100%30.07 "Hg10 mi
5:00 am54 °FPassing clouds.5 mph100%30.04 "HgN/A
4:30 am55 °FPassing clouds.5 mph100%30.04 "HgN/A
4:00 am57 °FPassing clouds.7 mph94%30.04 "HgN/A
3:30 am59 °FPassing clouds.6 mph94%30.04 "HgN/A
3:00 am59 °FPassing clouds.7 mph94%30.01 "HgN/A
2:30 am59 °FPassing clouds.9 mph94%30.01 "HgN/A
1:30 am61 °FPassing clouds.10 mph94%29.98 "HgN/A
1:00 am61 °FPassing clouds.9 mph94%29.98 "HgN/A
12:30 am61 °FPassing clouds.8 mph94%29.98 "HgN/A
12:00 am61 °FPartly cloudy.9 mph100%29.98 "HgN/A
11:30 pm
Tue, Aug 4
61 °FPassing clouds.10 mph100%29.95 "HgN/A
11:00 pm63 °FPassing clouds.9 mph94%29.95 "HgN/A
10:30 pm63 °FPassing clouds.10 mph94%29.92 "HgN/A
10:00 pm63 °FPassing clouds.12 mph94%29.92 "HgN/A
9:30 pm63 °FLight rain. Passing clouds.12 mph94%29.92 "HgN/A
9:00 pm63 °FLight rain. Passing clouds.14 mph100%29.92 "Hg4 mi
8:30 pm64 °FLight rain. Passing clouds.13 mph94%29.89 "Hg5 mi
8:00 pm64 °FLight rain. Partly sunny.9 mph94%29.89 "HgN/A
7:30 pm64 °FBroken clouds.7 mph94%29.86 "HgN/A
7:00 pm64 °FPartly sunny.9 mph94%29.86 "HgN/A
Weather by CustomWeather, © 2020

See weather overview